TimeCST,TemperatureF,Dew PointF,Humidity,Sea Level PressureIn,VisibilityMPH,Wind Direction,Wind SpeedMPH,Gust SpeedMPH,PrecipitationIn,Events,Conditions,WindDirDegrees,DateUTC
12:13 AM,28.4,24.8,86,30.14,10.0,South,15.0,-,N/A,,Clear,170,2013-01-10 06:13:00
12:33 AM,28.4,24.8,86,30.14,10.0,SSE,15.0,-,N/A,,Clear,160,2013-01-10 06:33:00
12:54 AM,30.2,24.8,80,30.14,10.0,South,19.6,-,N/A,,Clear,170,2013-01-10 06:54:00
1:13 AM,30.2,26.6,86,30.15,10.0,South,21.9,-,N/A,,Clear,170,2013-01-10 07:13:00
1:33 AM,30.2,24.8,80,30.14,10.0,South,18.4,-,N/A,,Clear,170,2013-01-10 07:33:00
1:54 AM,30.2,26.6,86,30.13,10.0,SSE,16.1,-,N/A,,Clear,160,2013-01-10 07:54:00
2:13 AM,33.8,26.6,75,30.13,10.0,South,21.9,-,N/A,,Clear,170,2013-01-10 08:13:00
2:33 AM,33.8,26.6,75,30.14,10.0,South,26.5,32.2,N/A,,Clear,170,2013-01-10 08:33:00
2:54 AM,33.8,26.6,75,30.13,10.0,South,24.2,-,N/A,,Clear,170,2013-01-10 08:54:00
3:13 AM,32.0,26.6,80,30.13,10.0,South,21.9,-,N/A,,Clear,170,2013-01-10 09:13:00
3:33 AM,32.0,26.6,80,30.12,10.0,South,20.7,-,N/A,,Clear,170,2013-01-10 09:33:00
3:54 AM,32.0,26.6,80,30.12,10.0,South,21.9,-,N/A,,Clear,170,2013-01-10 09:54:00
4:13 AM,32.0,26.6,80,30.12,10.0,South,19.6,-,N/A,,Clear,170,2013-01-10 10:13:00
4:33 AM,33.8,26.6,75,30.10,10.0,South,20.7,-,N/A,,Clear,170,2013-01-10 10:33:00
4:54 AM,33.8,26.6,75,30.10,10.0,South,23.0,-,N/A,,Clear,170,2013-01-10 10:54:00
5:13 AM,33.8,26.6,75,30.09,10.0,South,23.0,-,N/A,,Clear,170,2013-01-10 11:13:00
5:33 AM,33.8,26.6,75,30.09,10.0,South,21.9,-,N/A,,Clear,170,2013-01-10 11:33:00
6:13 AM,35.6,28.4,75,30.09,10.0,South,23.0,-,N/A,,Clear,180,2013-01-10 12:13:00
6:33 AM,35.6,28.4,75,30.09,10.0,South,23.0,-,N/A,,Clear,170,2013-01-10 12:33:00
6:54 AM,35.6,28.4,75,30.09,10.0,South,23.0,32.2,N/A,,Clear,180,2013-01-10 12:54:00
7:33 AM,35.6,28.4,75,30.09,10.0,South,24.2,-,N/A,,Clear,180,2013-01-10 13:33:00
7:54 AM,33.8,28.4,81,30.09,10.0,South,24.2,-,N/A,,Clear,170,2013-01-10 13:54:00
8:13 AM,35.6,28.4,75,30.09,10.0,South,26.5,31.1,N/A,,Clear,180,2013-01-10 14:13:00
8:33 AM,35.6,28.4,75,30.10,10.0,South,24.2,34.5,N/A,,Clear,170,2013-01-10 14:33:00
8:54 AM,33.8,26.6,75,30.10,10.0,South,21.9,-,N/A,,Clear,170,2013-01-10 14:54:00
9:13 AM,33.8,26.6,75,30.10,10.0,South,21.9,-,N/A,,Clear,180,2013-01-10 15:13:00
9:33 AM,35.6,26.6,70,30.10,10.0,South,20.7,-,N/A,,Clear,170,2013-01-10 15:33:00
9:54 AM,35.6,26.6,70,30.09,10.0,South,21.9,-,N/A,,Clear,180,2013-01-10 15:54:00
10:13 AM,37.4,26.6,65,30.07,10.0,South,24.2,28.8,N/A,,Clear,170,2013-01-10 16:13:00
10:33 AM,37.4,26.6,65,30.07,10.0,South,27.6,-,N/A,,Clear,180,2013-01-10 16:33:00
10:54 AM,37.4,24.8,60,30.06,10.0,South,23.0,-,N/A,,Clear,170,2013-01-10 16:54:00
11:13 AM,37.4,24.8,60,30.04,10.0,South,23.0,27.6,N/A,,Clear,170,2013-01-10 17:13:00
11:54 AM,37.4,24.8,60,30.01,10.0,South,20.7,26.5,N/A,,Unknown,170,2013-01-10 17:54:00
12:13 PM,37.4,24.8,60,29.99,10.0,South,20.7,26.5,N/A,,Unknown,170,2013-01-10 18:13:00
12:34 PM,37.4,23.0,56,29.98,10.0,South,21.9,-,N/A,,Clear,170,2013-01-10 18:34:00
12:54 PM,37.4,23.0,56,29.96,10.0,South,21.9,26.5,N/A,,Clear,170,2013-01-10 18:54:00
1:13 PM,37.4,23.0,56,29.94,10.0,South,19.6,-,N/A,,Clear,170,2013-01-10 19:13:00
1:34 PM,37.4,21.2,52,29.93,10.0,South,21.9,-,N/A,,Clear,170,2013-01-10 19:34:00
2:13 PM,37.4,21.2,52,29.93,10.0,SSE,19.6,-,N/A,,Clear,150,2013-01-10 20:13:00
2:34 PM,37.4,21.2,52,29.92,10.0,SSE,21.9,25.3,N/A,,Clear,160,2013-01-10 20:34:00
2:53 PM,37.4,21.2,52,29.92,10.0,SSE,17.3,26.5,N/A,,Clear,150,2013-01-10 20:53:00
3:13 PM,37.4,21.2,52,29.91,10.0,SSE,21.9,27.6,N/A,,Clear,150,2013-01-10 21:13:00
3:34 PM,37.4,24.8,60,29.91,10.0,SSE,24.2,29.9,N/A,,Mostly Cloudy,150,2013-01-10 21:34:00
3:53 PM,37.4,24.8,60,29.90,10.0,SSE,23.0,28.8,N/A,,Overcast,150,2013-01-10 21:53:00
4:13 PM,35.6,28.4,75,29.89,3.0,SE,18.4,25.3,0.01,Rain,Light Rain,140,2013-01-10 22:13:00
4:34 PM,33.8,28.4,81,29.88,5.0,SE,18.4,-,0.03,,Overcast,130,2013-01-10 22:34:00
4:53 PM,33.8,28.4,81,29.87,5.0,SE,15.0,-,0.04,,Overcast,130,2013-01-10 22:53:00
5:13 PM,33.8,28.4,81,29.86,7.0,SE,16.1,-,N/A,,Overcast,130,2013-01-10 23:13:00
5:34 PM,33.8,28.4,81,29.84,10.0,SE,12.7,-,N/A,,Overcast,130,2013-01-10 23:34:00
5:53 PM,33.8,28.4,81,29.83,5.0,SE,15.0,-,0.02,,Overcast,130,2013-01-10 23:53:00
6:13 PM,33.8,28.4,81,29.81,5.0,ESE,12.7,-,0.01,,Overcast,120,2013-01-11 00:13:00
6:34 PM,33.8,28.4,81,29.79,5.0,ESE,12.7,-,0.02,,Overcast,120,2013-01-11 00:34:00
6:53 PM,33.8,30.2,87,29.77,5.0,ESE,10.4,-,0.03,,Overcast,120,2013-01-11 00:53:00
7:13 PM,33.8,30.2,87,29.76,5.0,SE,10.4,-,0.01,,Overcast,130,2013-01-11 01:13:00
7:34 PM,32.0,30.2,93,29.75,5.0,SE,13.8,-,0.01,,Overcast,130,2013-01-11 01:34:00
7:53 PM,32.0,30.2,93,29.74,4.0,SE,11.5,-,0.03,,Overcast,130,2013-01-11 01:53:00
8:14 PM,32.0,30.2,93,29.73,5.0,SE,12.7,17.3,0.01,,Overcast,140,2013-01-11 02:14:00
8:34 PM,32.0,30.2,93,29.73,7.0,SE,12.7,-,0.02,,Overcast,140,2013-01-11 02:34:00
8:53 PM,32.0,30.2,93,29.72,3.0,SE,12.7,-,0.02,,Overcast,140,2013-01-11 02:53:00
9:14 PM,32.0,30.2,93,29.71,1.8,SSE,12.7,-,N/A,,Overcast,150,2013-01-11 03:14:00
9:34 PM,32.0,30.2,93,29.70,1.8,SSE,11.5,-,N/A,,Overcast,150,2013-01-11 03:34:00
9:53 PM,32.0,30.2,93,29.69,1.8,SSE,8.1,-,N/A,,Overcast,150,2013-01-11 03:53:00
10:14 PM,32.0,30.2,93,29.67,2.0,SE,9.2,-,N/A,,Overcast,140,2013-01-11 04:14:00
10:33 PM,32.0,32.0,100,29.66,1.8,SSE,9.2,-,N/A,,Overcast,150,2013-01-11 04:33:00
10:53 PM,32.0,32.0,100,29.65,1.2,SSE,8.1,-,0.02,,Overcast,150,2013-01-11 04:53:00
11:14 PM,32.0,32.0,100,29.64,2.0,SSE,9.2,-,0.01,,Overcast,150,2013-01-11 05:14:00
11:33 PM,32.0,32.0,100,29.63,2.0,SSE,8.1,-,0.02,,Overcast,150,2013-01-11 05:33:00